User: anonymous   Login
Location: Peebles
(55.6412°N, 3.1714°W)
Time: 06:13:55
(UTC+00:00)
Language:

Cosmos 1805 - Orbit

View from above orbital plane
View from above orbital plane
View from above satellite
View from above satellite

Ground track
Ground track

The orbit data is extracted from the following two-line orbital elements,

1 17191U 86097A   21336.59536991  .00000754  00000-0  40670-4 0  9998
2 17191  82.4748 222.9007 0003536 202.8924 157.2150 15.13306287909937
Epoch (UTC): 02 December 2021 14:17:19
Eccentricity: 0.0003536
inclination: 82.4748°
perigee height: 523 km
apogee height: 528 km
right ascension of ascending node: 222.9007°
argument of perigee: 202.8924°
revolutions per day: 15.13306287
mean anomaly at epoch: 157.2150°
orbit number at epoch: 90993

The dashed part of the orbit path shows where the satellite is in the earth's shadow,  

DLR